| time (UTC) | temp F | wind direction | speed knots | gust knots | rain 1hr in | rain 24hr in | rain mn in | humidity % | barometer mb |
| 20260507151154 | 55 | 39 | 0.9 | 5.2 | 0.00 | 0.02 | 0.01 | 64 | 1012.3 |
| 20260507150655 | 55 | 38 | 1.7 | 4.3 | 0.00 | 0.02 | 0.01 | 58 | 1012.3 |
| 20260507150203 | 55 | 26 | 1.7 | 8.7 | 0.00 | 0.02 | 0.01 | 57 | 1012.5 |
| 20260507150158 | 55 | 350 | 1.7 | 8.7 | 0.00 | 0.02 | 0.01 | 63 | 1012.4 |
| 20260507145155 | 55 | 305 | 2.6 | 8.7 | 0.00 | 0.02 | 0.01 | 57 | 1012.5 |
| 20260507144652 | 55 | 26 | 2.6 | 8.7 | 0.00 | 0.03 | 0.01 | 57 | 1012.5 |
| 20260507144152 | 54 | 315 | 2.6 | 7.0 | 0.00 | 0.03 | 0.01 | 58 | 1012.6 |
| 20260507143650 | 54 | 20 | 2.6 | 7.0 | 0.00 | 0.03 | 0.01 | 58 | 1012.6 |
| 20260507143150 | 54 | 330 | 2.6 | 7.8 | 0.00 | 0.04 | 0.01 | 59 | 1012.9 |
| 20260507142652 | 54 | 37 | 1.7 | 7.8 | 0.00 | 0.05 | 0.01 | 59 | 1012.9 |
| 20260507142150 | 54 | 294 | 2.6 | 7.8 | 0.00 | 0.05 | 0.01 | 59 | 1013.0 |
| 20260507141651 | 54 | 10 | 2.6 | 7.8 | 0.00 | 0.05 | 0.01 | 58 | 1013.0 |
| 20260507141141 | 54 | 313 | 2.6 | 7.8 | 0.00 | 0.05 | 0.01 | 59 | 1013.1 |
| 20260507140639 | 54 | 302 | 3.5 | 9.6 | 0.00 | 0.06 | 0.01 | 61 | 1013.1 |
| 20260507140635 | 54 | 24 | 2.6 | 7.8 | 0.00 | 0.05 | 0.01 | 60 | 1013.2 |
| 20260507135633 | 54 | 23 | 3.5 | 9.6 | 0.00 | 0.06 | 0.01 | 59 | 1013.2 |
| 20260507135627 | 54 | 30 | 2.6 | 6.1 | 0.00 | 0.07 | 0.01 | 60 | 1013.2 |
| 20260507134626 | 54 | 36 | 2.6 | 5.2 | 0.00 | 0.08 | 0.01 | 61 | 1013.1 |
| 20260507134127 | 54 | 55 | 2.6 | 5.2 | 0.00 | 0.09 | 0.01 | 60 | 1013.3 |
| 20260507133632 | 54 | 302 | 3.5 | 8.7 | 0.00 | 0.11 | 0.01 | 60 | 1013.2 |
| 20260507133627 | 54 | 337 | 2.6 | 8.7 | 0.00 | 0.10 | 0.01 | 60 | 1013.2 |
| 20260507132628 | 54 | 60 | 1.7 | 7.8 | 0.00 | 0.13 | 0.01 | 64 | 1013.3 |
| 20260507132623 | 54 | 15 | 2.6 | 7.8 | 0.00 | 0.12 | 0.01 | 61 | 1013.2 |
| 20260507131622 | 54 | 30 | 1.7 | 3.5 | 0.00 | 0.14 | 0.01 | 66 | 1013.2 |
| 20260507131122 | 54 | 303 | 1.7 | 6.1 | 0.00 | 0.14 | 0.01 | 66 | 1013.3 |
| 20260507130627 | 54 | 343 | 1.7 | 6.1 | 0.00 | 0.15 | 0.01 | 64 | 1013.3 |
| 20260507130622 | 54 | 42 | 1.7 | 6.1 | 0.00 | 0.15 | 0.01 | 64 | 1013.3 |
| 20260507125627 | 54 | 349 | 1.7 | 3.5 | 0.00 | 0.16 | 0.01 | 63 | 1013.3 |
| 20260507125622 | 54 | 32 | 1.7 | 6.1 | 0.00 | 0.15 | 0.01 | 64 | 1013.4 |
| 20260507124621 | 54 | 329 | 1.7 | 3.5 | 0.00 | 0.16 | 0.01 | 63 | 1013.3 |
| 20260507124117 | 54 | 48 | 0.9 | 3.5 | 0.00 | 0.17 | 0.01 | 66 | 1013.3 |
| 20260507123619 | 53 | 14 | 0.9 | 3.5 | 0.00 | 0.17 | 0.01 | 66 | 1013.2 |
| 20260507123110 | 53 | 14 | 1.7 | 5.2 | 0.00 | 0.17 | 0.01 | 65 | 1013.2 |
| 20260507122608 | 53 | 302 | 1.7 | 5.2 | 0.00 | 0.18 | 0.01 | 66 | 1013.2 |
| 20260507122107 | 53 | 40 | 1.7 | 5.2 | 0.00 | 0.19 | 0.01 | 66 | 1013.2 |
| 20260507121607 | 53 | 298 | 0.9 | 5.2 | 0.00 | 0.19 | 0.01 | 65 | 1013.2 |
| 20260507121110 | 53 | 5 | 1.7 | 4.3 | 0.00 | 0.21 | 0.01 | 67 | 1013.1 |
| 20260507121106 | 53 | 90 | 0.9 | 4.3 | 0.00 | 0.20 | 0.01 | 68 | 1013.2 |
| 20260507115602 | 53 | 34 | 1.7 | 4.3 | 0.00 | 0.22 | 0.01 | 70 | 1012.9 |
| 20260507115101 | 53 | 17 | 1.7 | 4.3 | 0.00 | 0.23 | 0.01 | 71 | 1012.9 |
| 20260507114558 | 53 | 36 | 0.9 | 2.6 | 0.00 | 0.23 | 0.01 | 74 | 1012.8 |
| 20260507114058 | 53 | 36 | 1.7 | 4.3 | 0.00 | 0.24 | 0.01 | 71 | 1012.9 |
| 20260507113557 | 53 | 64 | 1.7 | 4.3 | 0.00 | 0.24 | 0.01 | 70 | 1012.9 |
| 20260507113058 | 53 | 28 | 1.7 | 4.3 | 0.00 | 0.24 | 0.01 | 71 | 1012.6 |
| 20260507112556 | 53 | 305 | 1.7 | 4.3 | 0.00 | 0.24 | 0.01 | 70 | 1012.6 |
| 20260507112055 | 53 | 5 | 0.9 | 3.5 | 0.00 | 0.24 | 0.01 | 71 | 1012.8 |
| 20260507111554 | 54 | 331 | 1.7 | 4.3 | 0.00 | 0.24 | 0.01 | 71 | 1012.8 |
| 20260507111549 | 54 | 313 | 1.7 | 3.5 | 0.00 | 0.24 | 0.01 | 72 | 1012.8 |
| 20260507110548 | 54 | 267 | 1.7 | 4.3 | 0.00 | 0.24 | 0.01 | 74 | 1012.8 |
| 20260507110048 | 54 | 36 | 1.7 | 5.2 | 0.00 | 0.24 | 0.01 | 75 | 1012.6 |
| 20260507105545 | 54 | 298 | 1.7 | 5.2 | 0.00 | 0.24 | 0.01 | 76 | 1012.6 |
| 20260507105046 | 54 | 55 | 1.7 | 7.0 | 0.00 | 0.24 | 0.01 | 76 | 1012.6 |
| 20260507104548 | 54 | 0 | 1.7 | 7.0 | 0.00 | 0.24 | 0.01 | 80 | 1012.6 |
| 20260507104046 | 54 | 296 | 0.9 | 6.1 | 0.00 | 0.24 | 0.01 | 84 | 1012.3 |
| 20260507103544 | 53 | 311 | 0.9 | 6.1 | 0.00 | 0.24 | 0.01 | 87 | 1012.3 |
| 20260507103044 | 53 | 323 | 0.0 | 2.6 | 0.00 | 0.24 | 0.01 | 89 | 1012.3 |
| 20260507102544 | 53 | 355 | 0.0 | 1.7 | 0.00 | 0.24 | 0.01 | 89 | 1012.2 |
| 20260507102040 | 53 | 355 | 0.0 | 1.7 | 0.00 | 0.24 | 0.01 | 89 | 1012.2 |
| 20260507101541 | 53 | 355 | 0.0 | 1.7 | 0.00 | 0.24 | 0.01 | 90 | 1012.0 |
| 20260507101041 | 53 | 355 | 0.0 | 0.9 | 0.00 | 0.24 | 0.01 | 90 | 1011.9 |
| 20260507100539 | 53 | 355 | 0.0 | 1.7 | 0.00 | 0.24 | 0.01 | 90 | 1011.9 |
| 20260507100039 | 54 | 355 | 0.0 | 1.7 | 0.00 | 0.24 | 0.01 | 90 | 1011.8 |
| 20260507095537 | 54 | 355 | 0.0 | 1.7 | 0.00 | 0.24 | 0.01 | 90 | 1011.9 |
| 20260507095039 | 54 | 355 | 0.0 | 2.6 | 0.00 | 0.24 | 0.01 | 89 | 1012.0 |
| 20260507094540 | 54 | 17 | 0.0 | 2.6 | 0.00 | 0.24 | 0.01 | 90 | 1011.9 |
| 20260507094536 | 54 | 323 | 0.0 | 2.6 | 0.00 | 0.24 | 0.01 | 90 | 1011.9 |
| 20260507093526 | 54 | 17 | 0.9 | 2.6 | 0.00 | 0.24 | 0.01 | 88 | 1011.8 |
| 20260507093025 | 54 | 17 | 0.0 | 2.6 | 0.00 | 0.24 | 0.01 | 89 | 1011.7 |
| 20260507092528 | 53 | 17 | 0.0 | 0.9 | 0.00 | 0.24 | 0.01 | 89 | 1011.7 |
| 20260507092524 | 53 | 17 | 0.0 | 0.9 | 0.00 | 0.24 | 0.01 | 89 | 1011.6 |
| 20260507091515 | 54 | 17 | 0.0 | 0.9 | 0.00 | 0.24 | 0.01 | 89 | 1011.7 |
| 20260507091015 | 54 | 17 | 0.0 | 0.0 | 0.00 | 0.24 | 0.01 | 89 | 1011.7 |
| 20260507090513 | 54 | 17 | 0.0 | 1.7 | 0.00 | 0.24 | 0.01 | 88 | 1011.8 |
| 20260507090508 | 54 | 17 | 0.0 | 0.0 | 0.00 | 0.24 | 0.01 | 88 | 1011.7 |
| 20260507085506 | 54 | 17 | 0.0 | 1.7 | 0.00 | 0.24 | 0.01 | 87 | 1011.9 |
| 20260507085007 | 54 | 17 | 0.0 | 1.7 | 0.00 | 0.24 | 0.01 | 88 | 1011.7 |
| 20260507084506 | 54 | 17 | 0.0 | 3.5 | 0.00 | 0.24 | 0.01 | 87 | 1011.7 |
| 20260507084002 | 54 | 17 | 0.9 | 3.5 | 0.00 | 0.24 | 0.01 | 87 | 1011.6 |
| 20260507083459 | 54 | 17 | 0.9 | 3.5 | 0.00 | 0.24 | 0.01 | 87 | 1011.6 |
| 20260507082958 | 55 | 17 | 0.9 | 3.5 | 0.00 | 0.24 | 0.01 | 87 | 1011.5 |
| 20260507082457 | 54 | 32 | 0.9 | 3.5 | 0.00 | 0.24 | 0.01 | 88 | 1011.5 |
| 20260507081956 | 54 | 49 | 0.9 | 3.5 | 0.00 | 0.24 | 0.01 | 88 | 1011.4 |
| 20260507081456 | 54 | 22 | 0.0 | 3.5 | 0.00 | 0.24 | 0.01 | 89 | 1011.3 |
| 20260507080957 | 54 | 51 | 0.9 | 3.5 | 0.00 | 0.24 | 0.01 | 88 | 1011.1 |
| 20260507080953 | 54 | 51 | 0.9 | 3.5 | 0.00 | 0.24 | 0.01 | 89 | 1011.2 |
| 20260507075952 | 54 | 51 | 0.9 | 3.5 | 0.00 | 0.24 | 0.01 | 89 | 1011.0 |
| 20260507075451 | 54 | 33 | 0.9 | 3.5 | 0.00 | 0.24 | 0.01 | 89 | 1011.0 |
| 20260507074949 | 54 | 30 | 0.0 | 3.5 | 0.00 | 0.24 | 0.01 | 90 | 1011.0 |
| 20260507074448 | 54 | 30 | 0.9 | 3.5 | 0.00 | 0.24 | 0.01 | 90 | 1011.0 |
| 20260507073949 | 54 | 22 | 0.9 | 3.5 | 0.00 | 0.24 | 0.01 | 89 | 1010.9 |
| 20260507073446 | 54 | 26 | 0.9 | 2.6 | 0.00 | 0.24 | 0.01 | 89 | 1010.8 |
| 20260507072947 | 54 | 26 | 0.9 | 4.3 | 0.00 | 0.24 | 0.01 | 89 | 1010.8 |
| 20260507072445 | 55 | 26 | 0.9 | 4.3 | 0.00 | 0.24 | 0.01 | 89 | 1010.9 |
| 20260507072439 | 55 | 26 | 1.7 | 4.3 | 0.00 | 0.24 | 0.01 | 88 | 1011.0 |
| 20260507071436 | 55 | 24 | 2.6 | 9.6 | 0.00 | 0.24 | 0.01 | 88 | 1011.1 |
| 20260507070925 | 55 | 45 | 1.7 | 9.6 | 0.00 | 0.24 | 0.01 | 88 | 1011.0 |
| 20260507070424 | 55 | 51 | 2.6 | 9.6 | 0.00 | 0.24 | 0.01 | 89 | 1010.9 |
| 20260507065924 | 55 | 35 | 2.6 | 9.6 | 0.00 | 0.24 | 0.01 | 89 | 1010.9 |
| 20260507065425 | 56 | 32 | 2.6 | 7.8 | 0.00 | 0.24 | 0.01 | 89 | 1011.0 |
| 20260507064922 | 56 | 314 | 3.5 | 7.8 | 0.00 | 0.24 | 0.01 | 88 | 1011.0 |
| 20260507064423 | 56 | 345 | 2.6 | 7.8 | 0.00 | 0.24 | 0.01 | 88 | 1011.0 |
| 20260507063922 | 56 | 5 | 2.6 | 7.8 | 0.00 | 0.24 | 0.01 | 88 | 1011.2 |
| 20260507063411 | 56 | 319 | 2.6 | 7.8 | 0.00 | 0.24 | 0.01 | 88 | 1011.0 |
| 20260507062910 | 56 | 0 | 2.6 | 5.2 | 0.00 | 0.24 | 0.01 | 88 | 1011.1 |
| 20260507062414 | 56 | 355 | 1.7 | 5.2 | 0.00 | 0.24 | 0.01 | 89 | 1011.0 |
| 20260507062410 | 56 | 327 | 1.7 | 5.2 | 0.00 | 0.24 | 0.01 | 88 | 1011.3 |
| 20260507061403 | 56 | 329 | 1.7 | 4.3 | 0.01 | 0.24 | 0.01 | 89 | 1011.3 |
| 20260507060856 | 56 | 327 | 1.7 | 4.3 | 0.01 | 0.24 | 0.01 | 90 | 1010.9 |
| 20260507060354 | 56 | 355 | 1.7 | 4.3 | 0.01 | 0.24 | 0.01 | 90 | 1010.8 |
| 20260507055854 | 56 | 0 | 0.9 | 4.3 | 0.01 | 0.24 | 0.01 | 91 | 1011.0 |
| 20260507055355 | 56 | 344 | 0.9 | 4.3 | 0.01 | 0.24 | 0.01 | 91 | 1011.1 |
| 20260507054853 | 56 | 344 | 0.9 | 4.3 | 0.01 | 0.24 | 0.01 | 90 | 1011.1 |
| 20260507054347 | 56 | 345 | 0.9 | 4.3 | 0.01 | 0.24 | 0.01 | 90 | 1011.0 |
| 20260507053847 | 57 | 271 | 0.9 | 4.3 | 0.01 | 0.24 | 0.01 | 91 | 1011.0 |
| 20260507053347 | 57 | 33 | 0.9 | 3.5 | 0.01 | 0.24 | 0.01 | 91 | 1011.1 |
| 20260507052848 | 57 | 313 | 0.9 | 2.6 | 0.01 | 0.24 | 0.01 | 91 | 1011.2 |
| 20260507052345 | 57 | 22 | 0.9 | 2.6 | 0.01 | 0.24 | 0.01 | 91 | 1011.0 |
| 20260507051846 | 56 | 22 | 0.9 | 2.6 | 0.01 | 0.24 | 0.01 | 90 | 1011.0 |
| 20260507051345 | 57 | 22 | 0.9 | 2.6 | 0.00 | 0.23 | 0.00 | 90 | 1011.1 |
| 20260507050839 | 57 | 23 | 0.9 | 2.6 | 0.00 | 0.23 | 0.00 | 90 | 1011.2 |
| 20260507050337 | 57 | 342 | 0.9 | 5.2 | 0.00 | 0.23 | 0.00 | 90 | 1011.1 |
| 20260507045835 | 57 | 342 | 2.6 | 5.2 | 0.00 | 0.23 | 0.00 | 88 | 1011.1 |
| 20260507045831 | 57 | 342 | 1.7 | 5.2 | 0.00 | 0.23 | 0.00 | 89 | 1011.0 |
| 20260507044830 | 57 | 332 | 2.6 | 5.2 | 0.01 | 0.23 | 0.00 | 88 | 1011.4 |
| 20260507044330 | 57 | 333 | 1.7 | 5.2 | 0.01 | 0.23 | 0.00 | 87 | 1011.2 |
| 20260507043832 | 58 | 338 | 1.7 | 4.3 | 0.01 | 0.23 | 0.00 | 87 | 1010.9 |
| 20260507043331 | 58 | 340 | 1.7 | 4.3 | 0.01 | 0.23 | 0.00 | 87 | 1010.8 |
| 20260507042830 | 58 | 19 | 0.9 | 3.5 | 0.01 | 0.23 | 0.00 | 86 | 1010.8 |
| 20260507042326 | 58 | 285 | 0.9 | 6.1 | 0.01 | 0.23 | 0.00 | 85 | 1011.1 |
| 20260507041824 | 58 | 247 | 1.7 | 6.1 | 0.01 | 0.23 | 0.00 | 85 | 1011.2 |
| 20260507041312 | 58 | 16 | 2.6 | 9.6 | 0.01 | 0.23 | 0.00 | 85 | 1011.3 |
| 20260507040808 | 58 | 314 | 3.5 | 9.6 | 0.01 | 0.23 | 0.00 | 84 | 1011.2 |
| 20260507040308 | 59 | 292 | 3.5 | 9.6 | 0.01 | 0.23 | 0.00 | 84 | 1011.1 |
| 20260507035808 | 59 | 322 | 3.5 | 9.6 | 0.01 | 0.23 | 0.23 | 83 | 1010.9 |
| 20260507035311 | 61 | 348 | 3.5 | 7.8 | 0.00 | 0.22 | 0.22 | 81 | 1010.6 |
| 20260507035307 | 60 | 5 | 3.5 | 7.0 | 0.01 | 0.23 | 0.23 | 82 | 1010.8 |
| 20260507034304 | 61 | 333 | 2.6 | 7.8 | 0.00 | 0.22 | 0.22 | 79 | 1010.4 |
| 20260507033752 | 61 | 350 | 2.6 | 7.8 | 0.00 | 0.22 | 0.22 | 79 | 1010.5 |
| 20260507033256 | 62 | 340 | 2.6 | 9.6 | 0.00 | 0.22 | 0.22 | 78 | 1010.7 |
| 20260507033252 | 61 | 27 | 2.6 | 7.8 | 0.00 | 0.22 | 0.22 | 78 | 1010.5 |
| 20260507032253 | 62 | 0 | 3.5 | 9.6 | 0.00 | 0.22 | 0.22 | 79 | 1010.6 |
| 20260507031750 | 62 | 337 | 3.5 | 9.6 | 0.00 | 0.22 | 0.22 | 79 | 1010.6 |
| 20260507031251 | 62 | 20 | 3.5 | 9.6 | 0.00 | 0.22 | 0.22 | 80 | 1010.5 |
| 20260507030750 | 62 | 321 | 2.6 | 7.8 | 0.00 | 0.22 | 0.22 | 81 | 1010.4 |
| 20260507030247 | 62 | 41 | 1.7 | 7.8 | 0.00 | 0.22 | 0.22 | 80 | 1010.5 |
| 20260507025748 | 62 | 300 | 1.7 | 7.0 | 0.00 | 0.22 | 0.22 | 81 | 1010.4 |
| 20260507025246 | 62 | 5 | 2.6 | 7.0 | 0.00 | 0.22 | 0.22 | 80 | 1010.1 |
| 20260507024749 | 63 | 355 | 3.5 | 7.8 | 0.00 | 0.22 | 0.22 | 80 | 1010.1 |
| 20260507024744 | 63 | 11 | 2.6 | 7.0 | 0.00 | 0.22 | 0.22 | 80 | 1010.0 |
| 20260507023744 | 63 | 53 | 3.5 | 9.6 | 0.00 | 0.22 | 0.22 | 80 | 1010.1 |
| 20260507023238 | 63 | 14 | 3.5 | 9.6 | 0.00 | 0.22 | 0.22 | 80 | 1010.1 |
| 20260507022738 | 63 | 355 | 3.5 | 10.4 | 0.00 | 0.22 | 0.22 | 80 | 1009.9 |
| 20260507022228 | 63 | 336 | 3.5 | 10.4 | 0.00 | 0.22 | 0.22 | 80 | 1010.1 |
| 20260507021727 | 63 | 55 | 3.5 | 10.4 | 0.00 | 0.22 | 0.22 | 80 | 1009.9 |
| 20260507021721 | 63 | 304 | 3.5 | 10.4 | 0.00 | 0.22 | 0.22 | 80 | 1009.9 |
| 20260507021324 | 63 | 355 | 3.5 | 10.4 | 0.00 | 0.22 | 0.22 | 80 | 1009.9 |
| 20260507020220 | 64 | 341 | 3.5 | 9.6 | 0.00 | 0.22 | 0.22 | 80 | 1009.6 |
| 20260507015719 | 64 | 333 | 2.6 | 9.6 | 0.00 | 0.22 | 0.22 | 81 | 1009.8 |
| 20260507015213 | 64 | 296 | 2.6 | 7.8 | 0.00 | 0.22 | 0.22 | 82 | 1009.9 |
| 20260507015209 | 64 | 333 | 2.6 | 7.8 | 0.00 | 0.22 | 0.22 | 82 | 1009.9 |
| 20260507014825 | 64 | 20 | 2.6 | 7.8 | 0.00 | 0.22 | 0.22 | 82 | 1009.7 |
| 20260507013658 | 64 | 319 | 2.6 | 8.7 | 0.00 | 0.22 | 0.22 | 81 | 1009.8 |
| 20260507013202 | 65 | 319 | 2.6 | 8.7 | 0.00 | 0.22 | 0.22 | 81 | 1009.9 |
| 20260507013157 | 64 | 12 | 2.6 | 8.7 | 0.00 | 0.22 | 0.22 | 82 | 1009.9 |
| 20260507012158 | 65 | 9 | 4.3 | 8.7 | 0.00 | 0.22 | 0.22 | 81 | 1009.7 |
| 20260507011657 | 65 | 5 | 3.5 | 13.9 | 0.00 | 0.22 | 0.22 | 81 | 1009.9 |
| 20260507011157 | 65 | 45 | 4.3 | 13.9 | 0.00 | 0.22 | 0.22 | 81 | 1010.0 |
| 20260507010654 | 65 | 320 | 4.3 | 13.9 | 0.00 | 0.22 | 0.22 | 81 | 1009.9 |
| 20260507010154 | 66 | 342 | 4.3 | 13.9 | 0.00 | 0.22 | 0.22 | 82 | 1009.7 |
| 20260507005648 | 66 | 16 | 5.2 | 12.2 | 0.00 | 0.22 | 0.22 | 82 | 1009.9 |
| 20260507005147 | 67 | 5 | 4.3 | 12.2 | 0.00 | 0.22 | 0.22 | 82 | 1010.0 |
| 20260507004647 | 67 | 303 | 3.5 | 8.7 | 0.00 | 0.22 | 0.22 | 83 | 1009.9 |
| 20260507004145 | 67 | 348 | 2.6 | 7.8 | 0.00 | 0.22 | 0.22 | 83 | 1009.7 |
| 20260507003645 | 68 | 15 | 2.6 | 7.8 | 0.00 | 0.22 | 0.22 | 84 | 1009.6 |
| 20260507003145 | 68 | 0 | 1.7 | 7.8 | 0.00 | 0.22 | 0.22 | 85 | 1009.6 |
| 20260507002648 | 67 | 323 | 0.9 | 2.6 | 0.00 | 0.22 | 0.22 | 87 | 1009.2 |
| 20260507002643 | 67 | 331 | 0.9 | 2.6 | 0.00 | 0.22 | 0.22 | 86 | 1009.2 |
| 20260507001645 | 67 | 53 | 0.0 | 1.7 | 0.00 | 0.22 | 0.22 | 86 | 1009.4 |
| 20260507001144 | 67 | 53 | 0.0 | 1.7 | 0.00 | 0.22 | 0.22 | 86 | 1009.3 |
| 20260507000648 | 68 | 53 | 0.0 | 1.7 | 0.00 | 0.22 | 0.22 | 86 | 1009.1 |
| 20260507000644 | 67 | 53 | 0.0 | 1.7 | 0.00 | 0.22 | 0.22 | 86 | 1009.1 |
| 20260506235644 | 67 | 53 | 0.0 | 1.7 | 0.00 | 0.22 | 0.22 | 86 | 1009.0 |
| 20260506235141 | 67 | 53 | 0.0 | 0.9 | 0.00 | 0.22 | 0.22 | 86 | 1009.0 |
| 20260506234639 | 67 | 53 | 0.0 | 0.9 | 0.00 | 0.22 | 0.22 | 85 | 1008.9 |
| 20260506234136 | 68 | 53 | 0.0 | 0.9 | 0.00 | 0.22 | 0.22 | 85 | 1008.7 |
| 20260506233638 | 68 | 53 | 0.0 | 0.9 | 0.00 | 0.22 | 0.22 | 86 | 1008.7 |
| 20260506233141 | 67 | 53 | 0.0 | 1.7 | 0.00 | 0.22 | 0.22 | 86 | 1008.3 |
| 20260506233134 | 67 | 53 | 0.0 | 1.7 | 0.00 | 0.22 | 0.22 | 87 | 1008.4 |
| 20260506232139 | 68 | 341 | 0.0 | 1.7 | 0.00 | 0.22 | 0.22 | 86 | 1008.6 |
| 20260506232134 | 67 | 341 | 0.0 | 1.7 | 0.00 | 0.22 | 0.22 | 85 | 1008.6 |
| 20260506231752 | 68 | 349 | 0.0 | 1.7 | 0.00 | 0.22 | 0.22 | 86 | 1008.4 |
| 20260506230638 | 67 | 242 | 0.0 | 0.9 | 0.00 | 0.22 | 0.22 | 88 | 1008.2 |
| 20260506230633 | 67 | 63 | 0.0 | 1.7 | 0.00 | 0.22 | 0.22 | 87 | 1008.2 |
| 20260506225633 | 67 | 242 | 0.0 | 4.3 | 0.00 | 0.22 | 0.22 | 88 | 1008.3 |
| 20260506225135 | 67 | 19 | 0.0 | 4.3 | 0.00 | 0.22 | 0.22 | 87 | 1008.3 |
| 20260506225130 | 68 | 19 | 0.9 | 4.3 | 0.00 | 0.22 | 0.22 | 87 | 1008.3 |
| 20260506224127 | 68 | 19 | 0.0 | 4.3 | 0.00 | 0.22 | 0.22 | 86 | 1008.3 |
| 20260506223619 | 68 | 355 | 0.0 | 1.7 | 0.00 | 0.22 | 0.22 | 86 | 1008.3 |
| 20260506223113 | 68 | 355 | 0.0 | 1.7 | 0.00 | 0.22 | 0.22 | 87 | 1008.3 |
| 20260506222605 | 68 | 355 | 0.0 | 1.7 | 0.00 | 0.22 | 0.22 | 85 | 1008.2 |
| 20260506222106 | 68 | 53 | 0.0 | 1.7 | 0.00 | 0.22 | 0.22 | 85 | 1008.3 |
| 20260506221606 | 68 | 12 | 0.0 | 1.7 | 0.00 | 0.22 | 0.22 | 86 | 1008.2 |
| 20260506221106 | 68 | 12 | 0.0 | 1.7 | 0.00 | 0.22 | 0.22 | 86 | 1008.3 |
| 20260506220603 | 68 | 12 | 0.0 | 1.7 | 0.00 | 0.22 | 0.22 | 86 | 1008.3 |
| 20260506220101 | 68 | 334 | 0.0 | 1.7 | 0.00 | 0.22 | 0.22 | 86 | 1008.3 |
| 20260506215556 | 68 | 0 | 0.0 | 3.5 | 0.00 | 0.22 | 0.22 | 85 | 1008.3 |
| 20260506215058 | 68 | 52 | 0.9 | 3.5 | 0.00 | 0.22 | 0.22 | 84 | 1008.3 |
| 20260506214556 | 68 | 13 | 0.9 | 3.5 | 0.00 | 0.22 | 0.22 | 84 | 1008.3 |
| 20260506214048 | 68 | 32 | 0.9 | 3.5 | 0.00 | 0.22 | 0.22 | 83 | 1008.2 |
| 20260506214044 | 68 | 309 | 0.9 | 3.5 | 0.00 | 0.22 | 0.22 | 84 | 1008.3 |
| 20260506213049 | 68 | 214 | 0.9 | 3.5 | 0.00 | 0.22 | 0.22 | 84 | 1008.1 |
| 20260506213045 | 68 | 355 | 0.9 | 3.5 | 0.00 | 0.22 | 0.22 | 83 | 1008.2 |
| 20260506212045 | 69 | 291 | 0.9 | 1.7 | 0.00 | 0.22 | 0.22 | 83 | 1008.0 |
| 20260506211545 | 69 | 171 | 0.0 | 4.3 | 0.00 | 0.22 | 0.22 | 83 | 1007.9 |
| 20260506211042 | 68 | 171 | 0.9 | 4.3 | 0.00 | 0.22 | 0.22 | 84 | 1007.9 |
| 20260506210544 | 69 | 37 | 1.7 | 5.2 | 0.00 | 0.22 | 0.22 | 84 | 1007.8 |
| 20260506210540 | 69 | 171 | 0.9 | 4.3 | 0.00 | 0.22 | 0.22 | 82 | 1007.8 |
| 20260506205537 | 69 | 298 | 1.7 | 5.2 | 0.00 | 0.22 | 0.22 | 85 | 1007.8 |
| 20260506205037 | 69 | 124 | 0.9 | 3.5 | 0.00 | 0.22 | 0.22 | 86 | 1007.6 |
| 20260506204539 | 69 | 37 | 0.9 | 2.6 | 0.00 | 0.22 | 0.22 | 84 | 1007.7 |
| 20260506204038 | 69 | 346 | 0.9 | 7.0 | 0.00 | 0.22 | 0.22 | 82 | 1007.7 |
| 20260506203534 | 69 | 303 | 0.9 | 7.0 | 0.00 | 0.22 | 0.22 | 82 | 1007.6 |
| 20260506203033 | 68 | 344 | 0.9 | 7.0 | 0.00 | 0.22 | 0.22 | 83 | 1007.7 |
| 20260506202533 | 68 | 313 | 1.7 | 7.0 | 0.00 | 0.22 | 0.22 | 83 | 1007.7 |
| 20260506202028 | 68 | 186 | 0.9 | 7.0 | 0.00 | 0.22 | 0.22 | 85 | 1007.9 |
| 20260506201528 | 68 | 301 | 1.7 | 7.0 | 0.00 | 0.22 | 0.22 | 83 | 1007.9 |
| 20260506201028 | 68 | 5 | 1.7 | 7.0 | 0.00 | 0.22 | 0.22 | 83 | 1007.9 |
| 20260506200528 | 68 | 189 | 1.7 | 7.0 | 0.00 | 0.22 | 0.22 | 83 | 1007.7 |
| 20260506200025 | 68 | 249 | 1.7 | 7.8 | 0.00 | 0.22 | 0.22 | 82 | 1007.8 |
| 20260506195524 | 69 | 307 | 1.7 | 7.8 | 0.00 | 0.22 | 0.22 | 82 | 1007.9 |
| 20260506195025 | 68 | 217 | 1.7 | 3.5 | 0.00 | 0.22 | 0.22 | 83 | 1007.8 |
| 20260506194520 | 68 | 186 | 1.7 | 7.0 | 0.00 | 0.22 | 0.22 | 83 | 1007.8 |
| 20260506194018 | 68 | 113 | 0.9 | 7.0 | 0.00 | 0.22 | 0.22 | 83 | 1007.9 |
| 20260506194012 | 67 | 273 | 0.9 | 7.0 | 0.00 | 0.22 | 0.22 | 84 | 1007.9 |
| 20260506193012 | 67 | 161 | 1.7 | 7.0 | 0.00 | 0.22 | 0.22 | 83 | 1007.9 |
| 20260506192505 | 68 | 162 | 1.7 | 7.0 | 0.00 | 0.22 | 0.22 | 83 | 1008.0 |
| 20260506192004 | 67 | 326 | 0.9 | 7.0 | 0.00 | 0.22 | 0.22 | 83 | 1007.9 |
| 20260506191457 | 67 | 205 | 1.7 | 7.0 | 0.00 | 0.22 | 0.22 | 84 | 1008.0 |
| 20260506190957 | 67 | 23 | 1.7 | 7.0 | 0.00 | 0.22 | 0.22 | 83 | 1008.1 |
| 20260506190459 | 67 | 133 | 1.7 | 6.1 | 0.00 | 0.22 | 0.22 | 86 | 1008.1 |
| 20260506190454 | 67 | 250 | 0.9 | 7.8 | 0.00 | 0.22 | 0.22 | 84 | 1008.1 |
| 20260506185455 | 67 | 185 | 1.7 | 7.8 | 0.00 | 0.22 | 0.22 | 84 | 1008.1 |
| 20260506185450 | 66 | 190 | 1.7 | 7.8 | 0.00 | 0.22 | 0.22 | 84 | 1008.2 |
| 20260506184447 | 66 | 201 | 1.7 | 7.8 | 0.00 | 0.22 | 0.22 | 85 | 1008.3 |
| 20260506183947 | 66 | 207 | 1.7 | 7.0 | 0.00 | 0.22 | 0.22 | 86 | 1008.2 |
| 20260506183448 | 66 | 163 | 1.7 | 7.0 | 0.00 | 0.22 | 0.22 | 86 | 1008.4 |
| 20260506182944 | 66 | 119 | 0.9 | 6.1 | 0.00 | 0.22 | 0.22 | 87 | 1008.6 |
| 20260506182444 | 65 | 118 | 1.7 | 7.8 | 0.00 | 0.22 | 0.22 | 88 | 1008.5 |
| 20260506181943 | 65 | 171 | 1.7 | 7.8 | 0.00 | 0.22 | 0.22 | 87 | 1008.4 |
| 20260506181444 | 65 | 218 | 1.7 | 7.8 | 0.00 | 0.22 | 0.22 | 89 | 1008.6 |
| 20260506180951 | 65 | 206 | 1.7 | 7.8 | 0.00 | 0.22 | 0.22 | 88 | 1008.5 |
| 20260506180946 | 65 | 241 | 1.7 | 7.8 | 0.00 | 0.22 | 0.22 | 88 | 1008.4 |
| 20260506175941 | 65 | 126 | 1.7 | 7.8 | 0.00 | 0.22 | 0.22 | 88 | 1008.6 |
| 20260506175434 | 65 | 209 | 1.7 | 4.3 | 0.00 | 0.22 | 0.22 | 89 | 1008.6 |
| 20260506174932 | 65 | 148 | 1.7 | 4.3 | 0.00 | 0.22 | 0.22 | 89 | 1008.7 |
| 20260506174430 | 64 | 207 | 1.7 | 6.1 | 0.00 | 0.22 | 0.22 | 88 | 1008.7 |
| 20260506173930 | 64 | 317 | 1.7 | 6.1 | 0.00 | 0.22 | 0.22 | 90 | 1008.7 |
| 20260506173419 | 64 | 216 | 0.9 | 5.2 | 0.00 | 0.22 | 0.22 | 91 | 1008.8 |
| 20260506172920 | 64 | 204 | 1.7 | 6.1 | 0.00 | 0.22 | 0.22 | 90 | 1008.7 |
| 20260506172420 | 64 | 217 | 1.7 | 6.1 | 0.00 | 0.22 | 0.22 | 90 | 1008.7 |
| 20260506171919 | 64 | 248 | 0.9 | 6.1 | 0.00 | 0.22 | 0.22 | 91 | 1008.6 |
| 20260506171421 | 63 | 202 | 1.7 | 7.0 | 0.00 | 0.22 | 0.22 | 91 | 1008.7 |
| 20260506170911 | 63 | 180 | 1.7 | 7.0 | 0.00 | 0.22 | 0.22 | 92 | 1008.7 |
| 20260506170408 | 63 | 169 | 1.7 | 7.0 | 0.00 | 0.22 | 0.22 | 92 | 1008.9 |
| 20260506165908 | 62 | 321 | 1.7 | 7.0 | 0.00 | 0.22 | 0.22 | 92 | 1008.9 |
| 20260506165406 | 62 | 173 | 1.7 | 7.0 | 0.00 | 0.22 | 0.22 | 93 | 1009.0 |
| 20260506164905 | 62 | 188 | 1.7 | 8.7 | 0.00 | 0.22 | 0.22 | 93 | 1008.9 |
| 20260506164403 | 62 | 97 | 1.7 | 8.7 | 0.00 | 0.22 | 0.22 | 93 | 1008.9 |
| 20260506163903 | 62 | 175 | 1.7 | 6.1 | 0.00 | 0.22 | 0.22 | 93 | 1009.0 |
| 20260506163407 | 62 | 195 | 1.7 | 7.0 | 0.00 | 0.22 | 0.22 | 94 | 1009.0 |
| 20260506163402 | 62 | 205 | 2.6 | 7.0 | 0.00 | 0.22 | 0.22 | 93 | 1008.9 |
| 20260506162402 | 62 | 171 | 1.7 | 4.3 | 0.00 | 0.22 | 0.22 | 94 | 1009.1 |
| 20260506161900 | 62 | 225 | 1.7 | 3.5 | 0.00 | 0.22 | 0.22 | 94 | 1009.1 |
| 20260506161358 | 62 | 180 | 1.7 | 7.8 | 0.00 | 0.22 | 0.22 | 94 | 1009.0 |
| 20260506160851 | 61 | 204 | 1.7 | 7.8 | 0.00 | 0.22 | 0.22 | 94 | 1009.1 |
| 20260506160354 | 61 | 210 | 1.7 | 3.5 | 0.00 | 0.22 | 0.22 | 94 | 1009.1 |
| 20260506160349 | 61 | 206 | 1.7 | 5.2 | 0.00 | 0.22 | 0.22 | 94 | 1009.1 |
| 20260506155349 | 61 | 234 | 1.7 | 5.2 | 0.00 | 0.22 | 0.22 | 94 | 1009.2 |
| 20260506154849 | 61 | 183 | 1.7 | 5.2 | 0.01 | 0.22 | 0.22 | 94 | 1009.2 |
| 20260506154353 | 61 | 42 | 1.7 | 6.1 | 0.01 | 0.22 | 0.22 | 95 | 1009.1 |
| 20260506154348 | 61 | 211 | 1.7 | 6.1 | 0.01 | 0.22 | 0.22 | 95 | 1009.2 |
| 20260506153349 | 60 | 205 | 0.9 | 7.0 | 0.02 | 0.22 | 0.22 | 95 | 1009.2 |
| 20260506153344 | 60 | 168 | 1.7 | 6.1 | 0.01 | 0.22 | 0.22 | 95 | 1009.1 |
| 20260506152345 | 60 | 173 | 1.7 | 7.0 | 0.03 | 0.22 | 0.22 | 95 | 1009.3 |
| 20260506151846 | 60 | 192 | 1.7 | 7.0 | 0.03 | 0.22 | 0.22 | 95 | 1009.4 |